Regional Weather Roundup
Issued by NWS

Home | Current Version | Previous Version | Graphics & Text | Print | Product List | Glossary On
Versions: 1 2 3 4 5 6 7 8 9 10 11 12 13 14 15 16 17 18 19 20 21 22 23 24 25 26 27 28 29 30 31 32 33 34 35 36 37 38 39 40 41 42 43 44 45 46 47 48 49 50
000
ASUS43 KLMK 092102
RWRKY
KENTUCKY REGIONAL WEATHER ROUNDUP
NATIONAL WEATHER SERVICE LOUISVILLE KY
400 PM EST TUE FEB 09 2016

NOTE "FAIR" INDICATES FEW OR NO CLOUDS BELOW 12,000 FEET
WITH NO SIGNIFICANT WEATHER AND/OR OBSTRUCTIONS TO VISIBILITY.

KYZ001>023-026-027-061>063-070>075-092200-
WESTERN AND SOUTH CENTRAL KENTUCKY

CITY           SKY/WX    TMP DP  RH WIND       PRES   REMARKS
PADUCAH        CLOUDY    24  15  68 NW13      30.03R WCI  12
HENDERSON      CLOUDY    21  12  68 W18       29.99R WCI   6
OWENSBORO      LGT SNOW  22  17  81 W14       29.97R WCI   9
HOPKINSVILLE   NOT AVBL
BOWLING GREEN  LGT SNOW  24  16  71 W10       29.95R WCI  14
GLASGOW        NOT AVBL
$$

KYZ024-025-028>034-038-045-046-053-092200-
NORTH CENTRAL KENTUCKY

CITY           SKY/WX    TMP DP  RH WIND       PRES   REMARKS
LOUISVILLE/SDF LGT SNOW  25  16  68 W17       29.89R WCI  12
LOUISVILLE/LOU FLURRIES  24  15  68 W12       29.88R WCI  13
FORT KNOX      CLOUDY    23  14  68 W14       29.87R WCI  11
$$

KYZ035>037-039>044-047>052-055>060-089>105-092200-
NORTHEAST KENTUCKY

CITY           SKY/WX    TMP DP  RH WIND       PRES   REMARKS
LEXINGTON      LGT SNOW  23  16  74 W13       29.83R WCI  11
COVINGTON      LGT SNOW  23  18  81 W15       29.79R WCI  10
FRANKFORT      NOT AVBL
$$

KYZ054-064>069-076>088-106>120-092200-
SOUTHEAST KENTUCKY

CITY           SKY/WX    TMP DP  RH WIND       PRES   REMARKS
JACKSON        CLOUDY    23  12  62 VRB3      29.78R
LONDON         CLOUDY    22  12  65 NW15      29.83R WCI   9
SOMERSET       NOT AVBL
MIDDLESBORO    FLURRIES  25  16  70 NW8       29.83R WCI  16
MONTICELLO     FLURRIES  24  17  74 W9        29.88R WCI  14
$$




USA.gov is the U.S. government's official web portal to all federal, state and local government web resources and services.